Location: Unspecified
(52.4292°N, 19.3359°E)
Time: 23:24:41
(UTC+02:00)

A-11 Canister half - Pass Details

Date: 28 May 2024
Orbit: 1515 x 1685 km, 47.2° (Epoch: 19 June)

Event Time Altitude Azimuth Distance (km) Brightness Sun altitude
Rises 09:07:59 0° 283° (WNW) 4,676 11.1 39.2°
Reaches altitude 10° 09:13:14 10° 259° (WSW) 3,677 10.7 40.0°
Maximum altitude 09:16:58 13° 234° (SW) 3,427 10.7 40.5°
Drops below altitude 10° 09:20:42 10° 210° (SSW) 3,671 11.0 41.1°
Sets 09:25:59 0° 185° (S) 4,662 11.7 41.8°
